Location: Evensen
(52.5775°N, 9.5258°E)
Time: 10:27:06
(UTC+00:00)

COSMOS 2428 - Pass Details

Date: 15 May 2026
Orbit: 844 x 855 km, 70.9° (Epoch: 6 June)

Event Time Altitude Azimuth Distance (km) Brightness Sun altitude
Rises 22:49:17 0° 325° (NW) 3,426 7.0 -18.1°
Reaches altitude 10° 22:51:50 10° 320° (NW) 2,485 6.0 -18.1°
Maximum altitude 22:57:13 45° 249° (WSW) 1,151 3.3 -18.2°
Enters shadow 22:59:33 29° 198° (SSW) 1,496 3.5 -18.3°
